Time,TemperatureF,DewpointF,PressureIn,WindDirection,WindDirectionDegrees,WindSpeedMPH,WindSpeedGustMPH,Humidity,HourlyPrecipIn,Conditions,Clouds,dailyrainin,SoftwareType,DateUTC
2013-05-23 00:02:00,68.2,55.8,28.97,SW,225,0.0,1.1,64,-99.99,,,-99.99,WSDL version 420,2013-05-23 04:02:00,
2013-05-23 00:06:00,68.5,55.7,28.97,SW,215,0.0,1.3,63,-99.99,,,-99.99,WSDL version 420,2013-05-23 04:06:00,
2013-05-23 00:12:00,68.8,55.3,28.97,SW,225,1.5,3.6,61,-99.99,,,-99.99,WSDL version 420,2013-05-23 04:12:00,
2013-05-23 00:14:00,69.1,54.8,28.97,SW,214,1.1,3.6,60,-99.99,,,-99.99,WSDL version 420,2013-05-23 04:14:00,
2013-05-23 00:16:00,69.2,54.9,28.97,SW,233,0.4,3.6,60,-99.99,,,-99.99,WSDL version 420,2013-05-23 04:16:00,
2013-05-23 00:22:00,69.5,54.5,28.97,SW,219,0.4,2.7,59,-99.99,,,-99.99,WSDL version 420,2013-05-23 04:22:00,
2013-05-23 00:28:00,69.7,54.3,28.97,SW,215,0.2,2.5,58,-99.99,,,-99.99,WSDL version 420,2013-05-23 04:28:00,
2013-05-23 00:34:00,69.9,54.0,28.97,WSW,240,1.0,7.4,57,-99.99,,,-99.99,WSDL version 420,2013-05-23 04:34:00,
2013-05-23 00:40:00,70.1,53.9,28.97,SW,236,1.1,7.4,56,-99.99,,,-99.99,WSDL version 420,2013-05-23 04:40:00,
2013-05-23 00:46:00,70.2,53.8,28.97,WSW,248,1.6,3.4,56,-99.99,,,-99.99,WSDL version 420,2013-05-23 04:46:00,
2013-05-23 00:51:00,70.4,53.8,28.97,WSW,239,1.3,4.0,55,-99.99,,,-99.99,WSDL version 420,2013-05-23 04:51:00,
2013-05-23 00:57:00,70.5,53.6,28.97,SW,225,1.4,4.0,55,-99.99,,,-99.99,WSDL version 420,2013-05-23 04:57:00,
2013-05-23 01:02:00,70.5,53.6,28.97,SW,225,1.0,2.7,55,-99.99,,,-99.99,WSDL version 420,2013-05-23 05:02:00,
2013-05-23 01:08:00,70.5,53.6,28.97,WSW,239,1.9,2.9,55,-99.99,,,-99.99,WSDL version 420,2013-05-23 05:08:00,
2013-05-23 01:14:00,70.5,53.6,28.97,WSW,248,1.3,2.7,55,-99.99,,,-99.99,WSDL version 420,2013-05-23 05:14:00,
2013-05-23 01:20:00,70.3,53.3,28.97,SW,218,1.0,2.7,55,-99.99,,,-99.99,WSDL version 420,2013-05-23 05:20:00,
2013-05-23 01:26:00,70.2,53.3,28.97,SW,225,0.0,2.7,55,-99.99,,,-99.99,WSDL version 420,2013-05-23 05:26:00,
2013-05-23 01:32:00,69.9,53.0,28.97,SW,235,0.3,2.0,55,-99.99,,,-99.99,WSDL version 420,2013-05-23 05:32:00,
2013-05-23 01:38:00,69.7,53.3,28.97,SW,225,0.0,2.7,56,-99.99,,,-99.99,WSDL version 420,2013-05-23 05:38:00,
2013-05-23 01:43:00,69.5,53.6,28.97,SW,228,0.5,2.7,57,-99.99,,,-99.99,WSDL version 420,2013-05-23 05:43:00,
2013-05-23 01:49:00,69.4,53.8,28.97,SW,229,0.9,2.9,58,-99.99,,,-99.99,WSDL version 420,2013-05-23 05:49:00,
2013-05-23 01:54:00,69.3,53.9,28.97,SW,225,0.8,2.9,58,-99.99,,,-99.99,WSDL version 420,2013-05-23 05:54:00,
2013-05-23 02:02:00,69.1,54.4,28.97,SSW,196,0.6,3.6,60,-99.99,,,-99.99,WSDL version 420,2013-05-23 06:02:00,
2013-05-23 02:07:00,68.9,54.5,28.97,SW,228,0.0,2.2,60,-99.99,,,-99.99,WSDL version 420,2013-05-23 06:07:00,
2013-05-23 02:14:00,68.9,54.9,28.94,WSW,240,1.1,2.5,61,-99.99,,,-99.99,WSDL version 420,2013-05-23 06:14:00,
2013-05-23 02:20:00,68.9,54.9,28.94,SW,233,0.5,2.5,61,-99.99,,,-99.99,WSDL version 420,2013-05-23 06:20:00,
2013-05-23 02:25:00,68.9,54.9,28.94,SW,236,0.0,2.0,61,-99.99,,,-99.99,WSDL version 420,2013-05-23 06:25:00,
2013-05-23 02:31:00,68.7,55.2,28.94,SW,222,0.3,2.7,62,-99.99,,,-99.99,WSDL version 420,2013-05-23 06:31:00,
2013-05-23 02:37:00,68.7,55.2,28.94,WSW,242,0.0,2.7,62,-99.99,,,-99.99,WSDL version 420,2013-05-23 06:37:00,
2013-05-23 02:43:00,68.6,55.4,28.94,SSW,209,0.0,1.6,63,-99.99,,,-99.99,WSDL version 420,2013-05-23 06:43:00,
2013-05-23 02:49:00,68.5,55.5,28.94,SW,219,0.0,1.3,63,-99.99,,,-99.99,WSDL version 420,2013-05-23 06:49:00,
2013-05-23 02:55:00,68.5,55.5,28.94,WSW,242,0.3,2.5,63,-99.99,,,-99.99,WSDL version 420,2013-05-23 06:55:00,
2013-05-23 03:01:00,68.4,55.7,28.94,SSW,207,0.0,2.7,64,-99.99,,,-99.99,WSDL version 420,2013-05-23 07:01:00,
2013-05-23 03:07:00,68.4,55.7,28.94,WSW,248,0.0,1.1,64,-99.99,,,-99.99,WSDL version 420,2013-05-23 07:07:00,
2013-05-23 03:13:00,68.4,55.7,28.91,SW,215,0.4,2.0,64,-99.99,,,-99.99,WSDL version 420,2013-05-23 07:13:00,
2013-05-23 03:20:00,68.4,55.7,28.91,WSW,244,0.6,2.0,64,-99.99,,,-99.99,WSDL version 420,2013-05-23 07:20:00,
2013-05-23 03:26:00,68.3,55.7,28.94,SW,231,0.1,2.0,64,-99.99,,,-99.99,WSDL version 420,2013-05-23 07:26:00,
2013-05-23 03:32:00,68.2,56.0,28.94,SSW,203,0.0,2.0,65,-99.99,,,-99.99,WSDL version 420,2013-05-23 07:32:00,
2013-05-23 03:38:00,68.2,56.0,28.94,SSW,212,0.0,0.9,65,-99.99,,,-99.99,WSDL version 420,2013-05-23 07:38:00,
2013-05-23 03:44:00,68.1,55.9,28.94,SW,225,0.0,1.1,65,-99.99,,,-99.99,WSDL version 420,2013-05-23 07:44:00,
2013-05-23 03:49:00,68.0,55.8,28.94,SW,225,0.0,1.1,65,-99.99,,,-99.99,WSDL version 420,2013-05-23 07:49:00,
2013-05-23 03:58:00,67.8,56.1,28.94,SSW,203,0.0,0.0,66,-99.99,,,-99.99,WSDL version 420,2013-05-23 07:58:00,
2013-05-23 04:04:00,67.8,56.1,28.94,SSW,203,0.0,1.3,66,-99.99,,,-99.99,WSDL version 420,2013-05-23 08:04:00,
2013-05-23 04:09:00,67.8,56.2,28.94,SSW,203,0.0,0.0,67,-99.99,,,-99.99,WSDL version 420,2013-05-23 08:09:00,
2013-05-23 04:15:00,67.6,56.3,28.94,SSW,203,0.0,0.0,67,-99.99,,,-99.99,WSDL version 420,2013-05-23 08:15:00,
2013-05-23 04:21:00,67.6,56.3,28.94,SSW,194,0.0,0.0,67,-99.99,,,-99.99,WSDL version 420,2013-05-23 08:21:00,
2013-05-23 04:27:00,67.6,56.3,28.94,SSW,203,0.0,0.0,67,-99.99,,,-99.99,WSDL version 420,2013-05-23 08:27:00,
2013-05-23 04:33:00,67.6,56.3,28.94,SW,235,0.0,0.9,67,-99.99,,,-99.99,WSDL version 420,2013-05-23 08:33:00,
2013-05-23 04:39:00,67.7,56.7,28.94,SW,215,0.4,2.7,68,-99.99,,,-99.99,WSDL version 420,2013-05-23 08:39:00,
2013-05-23 04:47:00,67.8,56.9,28.94,SW,225,0.0,1.1,68,-99.99,,,-99.99,WSDL version 420,2013-05-23 08:47:00,
2013-05-23 04:53:00,68.0,56.6,28.94,SW,225,0.0,1.1,67,-99.99,,,-99.99,WSDL version 420,2013-05-23 08:53:00,
2013-05-23 05:00:00,67.8,56.5,28.94,SSW,203,0.0,1.3,67,-99.99,,,-99.99,WSDL version 420,2013-05-23 09:00:00,
2013-05-23 05:06:00,67.8,56.6,28.94,SW,225,0.0,1.1,68,-99.99,,,-99.99,WSDL version 420,2013-05-23 09:06:00,
2013-05-23 05:12:00,67.8,56.9,28.94,SW,214,0.7,2.9,68,-99.99,,,-99.99,WSDL version 420,2013-05-23 09:12:00,
2013-05-23 05:18:00,67.8,56.9,28.94,SSW,210,0.0,2.9,68,-99.99,,,-99.99,WSDL version 420,2013-05-23 09:18:00,
2013-05-23 05:24:00,68.0,57.1,28.94,SSW,205,0.0,1.6,68,-99.99,,,-99.99,WSDL version 420,2013-05-23 09:24:00,
2013-05-23 05:30:00,67.8,57.3,28.94,SW,219,0.4,2.5,69,-99.99,,,-99.99,WSDL version 420,2013-05-23 09:30:00,
2013-05-23 05:36:00,67.8,57.3,28.94,SW,225,0.1,1.1,69,-99.99,,,-99.99,WSDL version 420,2013-05-23 09:36:00,
2013-05-23 05:42:00,67.8,57.2,28.94,SW,225,0.0,2.9,69,-99.99,,,-99.99,WSDL version 420,2013-05-23 09:42:00,
2013-05-23 05:48:00,67.8,57.0,28.94,SSW,210,0.4,2.9,68,-99.99,,,-99.99,WSDL version 420,2013-05-23 09:48:00,
2013-05-23 05:55:00,67.6,56.7,28.94,SSW,209,0.0,2.0,68,-99.99,,,-99.99,WSDL version 420,2013-05-23 09:55:00,
2013-05-23 06:01:00,67.6,56.7,28.94,SSW,203,0.0,0.0,68,-99.99,,,-99.99,WSDL version 420,2013-05-23 10:01:00,
2013-05-23 06:07:00,67.6,56.7,28.94,SSW,203,0.0,0.0,68,-99.99,,,-99.99,WSDL version 420,2013-05-23 10:07:00,
2013-05-23 06:13:00,67.5,56.7,28.94,SSW,203,0.0,0.0,69,-99.99,,,-99.99,WSDL version 420,2013-05-23 10:13:00,
2013-05-23 06:19:00,67.5,56.9,28.94,SSW,203,0.0,0.0,69,-99.99,,,-99.99,WSDL version 420,2013-05-23 10:19:00,
2013-05-23 06:25:00,67.3,56.8,28.94,SSW,199,0.0,1.1,69,-99.99,,,-99.99,WSDL version 420,2013-05-23 10:25:00,
2013-05-23 06:31:00,67.3,57.2,28.94,SSW,203,0.0,1.1,70,-99.99,,,-99.99,WSDL version 420,2013-05-23 10:31:00,
2013-05-23 06:37:00,67.5,57.3,28.94,SW,219,0.0,0.0,70,-99.99,,,-99.99,WSDL version 420,2013-05-23 10:37:00,
2013-05-23 06:43:00,67.5,57.3,28.94,South,185,0.0,1.1,70,-99.99,,,-99.99,WSDL version 420,2013-05-23 10:43:00,
2013-05-23 06:48:00,67.5,57.3,28.94,SSW,203,0.0,0.0,70,-99.99,,,-99.99,WSDL version 420,2013-05-23 10:48:00,
2013-05-23 06:54:00,67.4,57.7,28.94,SE,145,0.0,0.0,71,-99.99,,,-99.99,WSDL version 420,2013-05-23 10:54:00,
2013-05-23 07:00:00,67.3,57.7,28.97,East,90,0.0,0.9,72,-99.99,,,-99.99,WSDL version 420,2013-05-23 11:00:00,
2013-05-23 07:06:00,67.3,57.6,28.97,ESE,113,0.0,0.9,71,-99.99,,,-99.99,WSDL version 420,2013-05-23 11:06:00,
2013-05-23 07:12:00,67.5,57.8,28.97,SE,135,0.0,1.6,71,-99.99,,,-99.99,WSDL version 420,2013-05-23 11:12:00,
2013-05-23 07:18:00,67.5,57.8,28.97,NNW,338,0.0,1.6,72,-99.99,,,-99.99,WSDL version 420,2013-05-23 11:18:00,
2013-05-23 07:24:00,67.5,57.7,28.97,North,360,0.0,0.0,71,-99.99,,,-99.99,WSDL version 420,2013-05-23 11:24:00,
2013-05-23 07:30:00,67.5,57.7,28.97,ENE,68,0.0,2.0,71,-99.99,,,-99.99,WSDL version 420,2013-05-23 11:30:00,
2013-05-23 07:36:00,67.6,57.9,28.97,SSE,158,0.0,2.0,71,-99.99,,,-99.99,WSDL version 420,2013-05-23 11:36:00,
2013-05-23 07:42:00,67.6,57.9,28.97,South,185,0.0,2.0,71,-99.99,,,-99.99,WSDL version 420,2013-05-23 11:42:00,
2013-05-23 07:48:00,67.6,57.9,28.97,SW,225,0.0,0.0,71,-99.99,,,-99.99,WSDL version 420,2013-05-23 11:48:00,
2013-05-23 07:54:00,67.6,57.9,28.97,SW,214,0.0,0.0,71,-99.99,,,-99.99,WSDL version 420,2013-05-23 11:54:00,
2013-05-23 08:00:00,67.9,58.2,28.97,SW,214,0.0,0.0,71,-99.99,,,-99.99,WSDL version 420,2013-05-23 12:00:00,
2013-05-23 08:07:00,68.3,58.5,28.97,SSW,203,0.0,1.1,71,-99.99,,,-99.99,WSDL version 420,2013-05-23 12:07:00,
2013-05-23 08:13:00,68.8,59.0,28.97,SSW,206,0.0,0.0,71,-99.99,,,-99.99,WSDL version 420,2013-05-23 12:13:00,
2013-05-23 08:19:00,69.2,59.1,28.97,SW,225,0.0,0.0,70,-99.99,,,-99.99,WSDL version 420,2013-05-23 12:19:00,
2013-05-23 08:26:00,69.4,59.2,28.97,SW,225,0.0,0.0,70,-99.99,,,-99.99,WSDL version 420,2013-05-23 12:26:00,
2013-05-23 08:32:00,69.6,59.2,28.94,SW,218,0.0,0.0,69,-99.99,,,-99.99,WSDL version 420,2013-05-23 12:32:00,
2013-05-23 08:38:00,69.8,59.1,-100.00,West,270,0.0,0.0,69,-99.99,,,-99.99,WSDL version 420,2013-05-23 12:38:00,
2013-05-23 08:44:00,70.2,59.3,28.97,SSW,206,0.0,0.0,68,-99.99,,,-99.99,WSDL version 420,2013-05-23 12:44:00,
2013-05-23 08:50:00,70.7,59.6,28.97,SW,215,0.0,0.0,68,-99.99,,,-99.99,WSDL version 420,2013-05-23 12:50:00,
2013-05-23 08:56:00,71.3,60.1,28.97,SSW,203,0.0,0.0,67,-99.99,,,-99.99,WSDL version 420,2013-05-23 12:56:00,
2013-05-23 09:04:00,72.1,58.9,28.97,SW,233,1.1,2.9,63,-99.99,,,-99.99,WSDL version 420,2013-05-23 13:04:00,
2013-05-23 09:09:00,72.2,58.7,28.97,SSW,199,1.4,2.9,62,-99.99,,,-99.99,WSDL version 420,2013-05-23 13:09:00,
2013-05-23 09:15:00,72.7,58.9,28.97,SSW,212,0.7,3.1,62,-99.99,,,-99.99,WSDL version 420,2013-05-23 13:15:00,
2013-05-23 09:21:00,73.7,58.9,28.97,SW,218,1.9,3.1,59,-99.99,,,-99.99,WSDL version 420,2013-05-23 13:21:00,
2013-05-23 09:27:00,74.2,58.3,28.97,WSW,240,1.4,3.1,57,-99.99,,,-99.99,WSDL version 420,2013-05-23 13:27:00,
2013-05-23 09:32:00,73.9,57.8,28.97,SSW,196,0.0,3.4,57,-99.99,,,-99.99,WSDL version 420,2013-05-23 13:32:00,
2013-05-23 09:38:00,74.3,58.0,28.97,SW,231,1.1,3.4,56,-99.99,,,-99.99,WSDL version 420,2013-05-23 13:38:00,
2013-05-23 09:44:00,74.2,57.4,28.97,SSW,212,0.7,2.9,55,-99.99,,,-99.99,WSDL version 420,2013-05-23 13:44:00,
2013-05-23 09:50:00,73.9,57.3,28.97,SW,223,0.4,3.1,56,-99.99,,,-99.99,WSDL version 420,2013-05-23 13:50:00,
2013-05-23 09:56:00,73.8,57.1,28.94,SW,225,1.0,3.1,56,-99.99,,,-99.99,WSDL version 420,2013-05-23 13:56:00,
2013-05-23 10:02:00,73.6,57.3,28.94,WSW,241,1.2,2.5,56,-99.99,,,-99.99,WSDL version 420,2013-05-23 14:02:00,
2013-05-23 10:08:00,73.6,57.5,28.94,WSW,251,0.8,2.9,57,-99.99,,,-99.99,WSDL version 420,2013-05-23 14:08:00,
2013-05-23 10:14:00,73.8,57.6,28.97,SW,223,0.6,4.3,57,-99.99,,,-99.99,WSDL version 420,2013-05-23 14:14:00,
2013-05-23 10:20:00,73.7,57.3,28.97,WSW,240,0.9,2.9,56,-99.99,,,-99.99,WSDL version 420,2013-05-23 14:20:00,
2013-05-23 10:26:00,73.0,56.6,28.97,WSW,257,1.2,3.6,57,-99.99,,,-99.99,WSDL version 420,2013-05-23 14:26:00,
2013-05-23 10:32:00,72.6,56.7,28.97,SW,222,0.8,3.6,58,-99.99,,,-99.99,WSDL version 420,2013-05-23 14:32:00,
2013-05-23 10:38:00,72.6,57.1,28.97,SW,214,0.0,2.7,59,-99.99,,,-99.99,WSDL version 420,2013-05-23 14:38:00,
2013-05-23 10:43:00,72.5,57.8,28.97,SSW,203,0.6,2.0,60,-99.99,,,-99.99,WSDL version 420,2013-05-23 14:43:00,
2013-05-23 10:48:00,72.1,57.0,28.97,SW,218,1.4,2.7,59,-99.99,,,-99.99,WSDL version 420,2013-05-23 14:48:00,
2013-05-23 10:53:00,72.1,57.0,28.97,WSW,248,1.0,2.7,59,-99.99,,,-99.99,WSDL version 420,2013-05-23 14:53:00,
2013-05-23 10:59:00,72.1,57.0,28.97,West,260,1.3,3.4,59,-99.99,,,-99.99,WSDL version 420,2013-05-23 14:59:00,
2013-05-23 11:05:00,72.2,57.1,28.97,SSW,196,1.2,3.4,59,-99.99,,,-99.99,WSDL version 420,2013-05-23 15:05:00,
2013-05-23 11:12:00,73.1,58.2,28.97,SW,222,0.5,3.6,59,-99.99,,,-99.99,WSDL version 420,2013-05-23 15:12:00,
2013-05-23 11:18:00,74.3,58.7,28.97,NW,305,1.2,3.6,58,-99.99,,,-99.99,WSDL version 420,2013-05-23 15:18:00,
2013-05-23 11:24:00,74.1,57.9,28.97,WSW,239,0.4,2.7,57,-99.99,,,-99.99,WSDL version 420,2013-05-23 15:24:00,
2013-05-23 11:31:00,73.7,57.0,28.97,WSW,248,0.9,2.2,56,-99.99,,,-99.99,WSDL version 420,2013-05-23 15:31:00,
2013-05-23 11:37:00,73.2,56.6,28.97,WSW,248,0.9,0.0,56,-99.99,,,-99.99,WSDL version 420,2013-05-23 15:37:00,
2013-05-23 11:43:00,73.3,57.5,28.94,WSW,248,0.0,0.0,58,-99.99,,,-99.99,WSDL version 420,2013-05-23 15:43:00,
2013-05-23 11:49:00,73.4,57.7,28.94,SSE,158,0.0,0.0,58,-99.99,,,-99.99,WSDL version 420,2013-05-23 15:49:00,
2013-05-23 11:55:00,73.1,57.6,28.94,SSW,203,0.9,2.7,58,-99.99,,,-99.99,WSDL version 420,2013-05-23 15:55:00,
2013-05-23 12:02:00,73.0,57.9,28.97,SSW,203,0.9,2.7,59,-99.99,,,-99.99,WSDL version 420,2013-05-23 16:02:00,
2013-05-23 12:11:00,73.4,58.2,28.97,North,-999,-999.0,-999.0,59,-99.99,,,-99.99,WSDL version 420,2013-05-23 16:11:00,
2013-05-23 12:17:00,73.6,58.4,28.97,North,-999,-999.0,-999.0,59,-99.99,,,-99.99,WSDL version 420,2013-05-23 16:17:00,
2013-05-23 12:23:00,73.8,57.8,28.97,North,-999,-999.0,-999.0,57,-99.99,,,-99.99,WSDL version 420,2013-05-23 16:23:00,
2013-05-23 12:29:00,74.1,58.4,28.97,WNW,293,0.9,0.9,58,-99.99,,,-99.99,WSDL version 420,2013-05-23 16:29:00,
2013-05-23 12:35:00,74.5,58.9,28.97,North,0,0.0,0.9,59,-99.99,,,-99.99,WSDL version 420,2013-05-23 16:35:00,
2013-05-23 12:41:00,75.0,59.2,28.97,SW,225,1.1,1.6,57,-99.99,,,-99.99,WSDL version 420,2013-05-23 16:41:00,
2013-05-23 12:47:00,75.9,58.9,28.97,WSW,248,1.6,1.6,55,-99.99,,,-99.99,WSDL version 420,2013-05-23 16:47:00,
2013-05-23 12:53:00,76.8,58.9,28.97,WSW,248,0.9,3.8,53,-99.99,,,-99.99,WSDL version 420,2013-05-23 16:53:00,
2013-05-23 12:59:00,78.9,60.1,28.97,WSW,248,0.9,3.8,52,-99.99,,,-99.99,WSDL version 420,2013-05-23 16:59:00,
2013-05-23 13:04:00,80.1,59.8,28.97,West,270,0.9,3.8,50,-99.99,,,-99.99,WSDL version 420,2013-05-23 17:04:00,
2013-05-23 13:10:00,82.0,60.1,28.97,SSW,203,1.6,5.4,45,-99.99,,,-99.99,WSDL version 420,2013-05-23 17:10:00,
2013-05-23 13:16:00,82.4,58.6,28.97,SW,218,0.7,5.4,44,-99.99,,,-99.99,WSDL version 420,2013-05-23 17:16:00,
2013-05-23 13:22:00,83.3,59.2,28.97,SW,225,0.9,3.4,43,-99.99,,,-99.99,WSDL version 420,2013-05-23 17:22:00,
2013-05-23 13:28:00,84.4,58.8,28.97,WNW,293,1.5,3.4,41,-99.99,,,-99.99,WSDL version 420,2013-05-23 17:28:00,
2013-05-23 13:36:00,84.6,57.6,28.97,NNW,338,1.1,1.6,40,-99.99,,,-99.99,WSDL version 420,2013-05-23 17:36:00,
2013-05-23 13:42:00,83.4,57.0,28.94,North,360,0.0,3.6,41,-99.99,,,-99.99,WSDL version 420,2013-05-23 17:42:00,
2013-05-23 13:50:00,80.2,54.1,28.94,NNW,329,1.7,3.8,41,-99.99,,,-99.99,WSDL version 420,2013-05-23 17:50:00,
2013-05-23 13:56:00,77.2,53.2,28.97,NNW,338,2.5,3.8,44,-99.99,,,-99.99,WSDL version 420,2013-05-23 17:56:00,
2013-05-23 14:01:00,75.9,53.6,28.97,NW,315,2.7,3.4,46,-99.99,,,-99.99,WSDL version 420,2013-05-23 18:01:00,
2013-05-23 14:07:00,75.1,54.2,28.97,NNW,338,3.1,3.1,49,-99.99,,,-99.99,WSDL version 420,2013-05-23 18:07:00,
2013-05-23 14:13:00,74.3,55.2,28.94,NNW,338,3.1,3.1,53,-99.99,,,-99.99,WSDL version 420,2013-05-23 18:13:00,
2013-05-23 14:21:00,72.6,54.5,28.94,SSW,203,0.0,1.6,54,-99.99,,,-99.99,WSDL version 420,2013-05-23 18:21:00,
2013-05-23 14:27:00,72.1,53.9,28.94,SSW,203,0.0,0.9,53,-99.99,,,-99.99,WSDL version 420,2013-05-23 18:27:00,
2013-05-23 14:35:00,72.7,54.6,28.94,South,176,1.1,2.7,53,-99.99,,,-99.99,WSDL version 420,2013-05-23 18:35:00,
2013-05-23 14:41:00,73.1,54.5,28.94,SSW,203,0.0,2.7,52,-99.99,,,-99.99,WSDL version 420,2013-05-23 18:41:00,
2013-05-23 14:47:00,73.8,55.3,28.94,West,270,2.2,2.9,52,-99.99,,,-99.99,WSDL version 420,2013-05-23 18:47:00,
2013-05-23 14:53:00,73.4,54.5,28.94,NNW,338,2.0,3.1,52,-99.99,,,-99.99,WSDL version 420,2013-05-23 18:53:00,
2013-05-23 14:59:00,73.3,55.2,28.94,SW,218,0.0,2.9,53,-99.99,,,-99.99,WSDL version 420,2013-05-23 18:59:00,
2013-05-23 15:05:00,73.0,54.3,28.94,NW,323,1.3,0.0,51,-99.99,,,-99.99,WSDL version 420,2013-05-23 19:05:00,
2013-05-23 15:11:00,72.4,52.6,28.94,NW,315,1.3,2.7,49,-99.99,,,-99.99,WSDL version 420,2013-05-23 19:11:00,
2013-05-23 15:17:00,71.7,51.9,28.94,NW,304,0.0,2.7,50,-99.99,,,-99.99,WSDL version 420,2013-05-23 19:17:00,
2013-05-23 15:23:00,71.5,52.8,28.94,NNW,338,1.1,2.0,52,-99.99,,,-99.99,WSDL version 420,2013-05-23 19:23:00,
2013-05-23 15:31:00,70.3,53.4,28.94,NNW,338,0.0,2.2,55,-99.99,,,-99.99,WSDL version 420,2013-05-23 19:31:00,
2013-05-23 15:37:00,69.7,53.9,28.94,NW,315,0.9,2.2,58,-99.99,,,-99.99,WSDL version 420,2013-05-23 19:37:00,
2013-05-23 15:44:00,69.3,54.8,28.91,North,353,0.0,0.0,61,-99.99,,,-99.99,WSDL version 420,2013-05-23 19:44:00,
2013-05-23 15:50:00,68.8,55.6,28.91,SSW,203,0.0,0.0,63,-99.99,,,-99.99,WSDL version 420,2013-05-23 19:50:00,
2013-05-23 15:56:00,68.3,55.9,28.94,SW,225,0.0,0.0,65,-99.99,,,-99.99,WSDL version 420,2013-05-23 19:56:00,
2013-05-23 16:02:00,68.0,56.7,28.94,SW,214,0.0,0.0,68,-99.99,,,-99.99,WSDL version 420,2013-05-23 20:02:00,
2013-05-23 16:08:00,67.5,57.0,28.94,SW,225,0.0,0.0,70,-99.99,,,-99.99,WSDL version 420,2013-05-23 20:08:00,
2013-05-23 16:14:00,67.1,57.4,28.97,SSW,209,0.0,0.0,71,-99.99,,,-99.99,WSDL version 420,2013-05-23 20:14:00,
2013-05-23 16:20:00,66.9,57.7,28.97,NW,308,0.0,2.2,72,-99.99,,,-99.99,WSDL version 420,2013-05-23 20:20:00,
2013-05-23 16:26:00,66.5,58.5,28.97,NW,321,0.6,2.7,76,-99.99,,,-99.99,WSDL version 420,2013-05-23 20:26:00,
2013-05-23 16:32:00,66.5,59.5,28.97,South,180,0.0,2.7,78,-99.99,,,-99.99,WSDL version 420,2013-05-23 20:32:00,
2013-05-23 16:38:00,66.9,60.1,28.97,SSW,207,0.0,0.0,79,-99.99,,,-99.99,WSDL version 420,2013-05-23 20:38:00,
2013-05-23 16:44:00,67.5,60.8,28.94,WNW,293,0.0,0.0,80,-99.99,,,-99.99,WSDL version 420,2013-05-23 20:44:00,
2013-05-23 16:50:00,67.6,60.9,28.94,NW,315,0.0,0.0,79,-99.99,,,-99.99,WSDL version 420,2013-05-23 20:50:00,
2013-05-23 16:56:00,67.5,60.7,28.91,WNW,296,0.0,0.0,79,-99.99,,,-99.99,WSDL version 420,2013-05-23 20:56:00,
2013-05-23 17:02:00,67.1,60.0,28.91,NW,321,0.0,0.0,78,-99.99,,,-99.99,WSDL version 420,2013-05-23 21:02:00,
2013-05-23 17:09:00,66.9,60.2,28.91,WSW,248,0.0,0.0,79,-99.99,,,-99.99,WSDL version 420,2013-05-23 21:09:00,
2013-05-23 17:15:00,66.9,60.3,28.91,WSW,248,0.0,0.0,80,-99.99,,,-99.99,WSDL version 420,2013-05-23 21:15:00,
2013-05-23 17:22:00,66.9,60.6,28.91,WSW,238,0.0,0.0,80,-99.99,,,-99.99,WSDL version 420,2013-05-23 21:22:00,
2013-05-23 17:28:00,67.1,61.1,28.94,SW,225,0.0,0.0,81,-99.99,,,-99.99,WSDL version 420,2013-05-23 21:28:00,
2013-05-23 17:34:00,67.3,61.3,28.94,SW,225,0.0,0.0,81,-99.99,,,-99.99,WSDL version 420,2013-05-23 21:34:00,
2013-05-23 17:40:00,67.5,61.5,28.94,SW,225,0.0,0.0,81,-99.99,,,-99.99,WSDL version 420,2013-05-23 21:40:00,
2013-05-23 17:46:00,67.6,61.6,28.91,SW,225,0.0,0.0,81,-99.99,,,-99.99,WSDL version 420,2013-05-23 21:46:00,
2013-05-23 17:52:00,67.8,61.8,28.91,NW,326,0.0,0.0,81,-99.99,,,-99.99,WSDL version 420,2013-05-23 21:52:00,
2013-05-23 17:58:00,67.8,61.4,28.91,WSW,251,0.0,0.0,80,-99.99,,,-99.99,WSDL version 420,2013-05-23 21:58:00,
2013-05-23 18:04:00,67.7,61.0,28.91,SW,225,0.0,0.0,79,-99.99,,,-99.99,WSDL version 420,2013-05-23 22:04:00,
2013-05-23 18:10:00,67.3,60.3,28.91,SW,225,0.0,0.0,78,-99.99,,,-99.99,WSDL version 420,2013-05-23 22:10:00,
2013-05-23 18:16:00,67.0,59.9,28.94,SW,225,0.0,0.0,78,-99.99,,,-99.99,WSDL version 420,2013-05-23 22:16:00,
2013-05-23 18:22:00,66.7,59.7,28.94,SW,225,0.0,0.0,78,-99.99,,,-99.99,WSDL version 420,2013-05-23 22:22:00,
2013-05-23 18:28:00,66.9,59.8,28.94,SW,225,0.0,0.0,78,-99.99,,,-99.99,WSDL version 420,2013-05-23 22:28:00,
2013-05-23 18:34:00,66.9,59.8,28.94,SW,225,0.0,0.0,78,-99.99,,,-99.99,WSDL version 420,2013-05-23 22:34:00,
2013-05-23 18:40:00,66.9,59.8,28.94,SW,225,0.0,0.0,78,-99.99,,,-99.99,WSDL version 420,2013-05-23 22:40:00,
2013-05-23 18:46:00,66.7,59.6,28.94,SW,225,0.0,0.0,78,-99.99,,,-99.99,WSDL version 420,2013-05-23 22:46:00,
2013-05-23 18:52:00,66.6,59.9,28.94,SW,225,0.0,0.0,79,-99.99,,,-99.99,WSDL version 420,2013-05-23 22:52:00,
2013-05-23 18:59:00,66.4,59.7,28.97,SSW,203,0.0,0.0,79,-99.99,,,-99.99,WSDL version 420,2013-05-23 22:59:00,
2013-05-23 19:05:00,66.1,59.6,28.97,SSW,203,0.0,0.0,80,-99.99,,,-99.99,WSDL version 420,2013-05-23 23:05:00,
2013-05-23 19:11:00,65.8,59.9,28.97,SSW,203,0.0,0.0,81,-99.99,,,-99.99,WSDL version 420,2013-05-23 23:11:00,
2013-05-23 19:17:00,65.7,59.8,28.97,SSW,203,0.0,0.0,82,-99.99,,,-99.99,WSDL version 420,2013-05-23 23:17:00,
2013-05-23 19:23:00,65.5,60.1,28.97,SSW,203,0.0,0.0,83,-99.99,,,-99.99,WSDL version 420,2013-05-23 23:23:00,
2013-05-23 19:29:00,65.4,60.5,28.97,SSW,203,0.0,0.0,84,-99.99,,,-99.99,WSDL version 420,2013-05-23 23:29:00,
2013-05-23 19:35:00,65.3,60.5,28.97,SSW,203,0.0,0.0,84,-99.99,,,-99.99,WSDL version 420,2013-05-23 23:35:00,
2013-05-23 19:41:00,65.0,60.2,29.00,SSW,203,0.0,0.0,84,-99.99,,,-99.99,WSDL version 420,2013-05-23 23:41:00,
2013-05-23 19:47:00,64.9,60.4,29.00,SSW,203,0.0,0.0,86,-99.99,,,-99.99,WSDL version 420,2013-05-23 23:47:00,
2013-05-23 19:53:00,64.8,60.5,29.00,SSW,203,0.0,0.0,87,-99.99,,,-99.99,WSDL version 420,2013-05-23 23:53:00,
2013-05-23 19:59:00,64.7,61.0,28.97,SSW,203,0.0,0.0,88,-99.99,,,-99.99,WSDL version 420,2013-05-23 23:59:00,
2013-05-23 20:05:00,64.6,60.8,28.97,SSW,203,0.0,0.0,88,-99.99,,,-99.99,WSDL version 420,2013-05-24 00:05:00,
2013-05-23 20:13:00,64.5,61.0,29.00,SSW,203,0.0,0.0,88,-99.99,,,-99.99,WSDL version 420,2013-05-24 00:13:00,
2013-05-23 20:19:00,64.4,60.8,29.00,SW,225,0.0,0.0,89,-99.99,,,-99.99,WSDL version 420,2013-05-24 00:19:00,
2013-05-23 20:25:00,64.3,61.1,29.00,SW,228,0.0,0.0,90,-99.99,,,-99.99,WSDL version 420,2013-05-24 00:25:00,
2013-05-23 20:31:00,64.2,61.1,28.94,SW,225,0.0,0.0,89,-99.99,,,-99.99,WSDL version 420,2013-05-24 00:31:00,
2013-05-23 20:37:00,64.0,61.0,28.94,SW,225,0.0,0.0,90,-99.99,,,-99.99,WSDL version 420,2013-05-24 00:37:00,
2013-05-23 20:42:00,64.0,61.2,28.97,SW,225,0.0,0.0,91,-99.99,,,-99.99,WSDL version 420,2013-05-24 00:42:00,
2013-05-23 20:48:00,63.7,60.8,28.97,North,350,1.2,3.8,90,-99.99,,,-99.99,WSDL version 420,2013-05-24 00:48:00,
2013-05-23 20:54:00,62.3,58.8,28.97,North,349,1.0,4.0,88,-99.99,,,-99.99,WSDL version 420,2013-05-24 00:54:00,
2013-05-23 21:00:00,61.7,58.1,28.97,NNE,16,0.0,2.7,88,-99.99,,,-99.99,WSDL version 420,2013-05-24 01:00:00,
2013-05-23 21:06:00,61.3,57.9,28.97,NNE,14,0.0,1.6,89,-99.99,,,-99.99,WSDL version 420,2013-05-24 01:06:00,
2013-05-23 21:12:00,60.9,57.2,28.94,NNW,335,0.0,1.6,88,-99.99,,,-99.99,WSDL version 420,2013-05-24 01:12:00,
2013-05-23 21:18:00,60.3,56.6,28.94,North,349,0.1,2.2,88,-99.99,,,-99.99,WSDL version 420,2013-05-24 01:18:00,
2013-05-23 21:24:00,59.8,56.3,28.94,NNW,338,0.5,3.1,88,-99.99,,,-99.99,WSDL version 420,2013-05-24 01:24:00,
2013-05-23 21:30:00,59.6,56.2,28.97,NNW,338,0.0,3.1,88,-99.99,,,-99.99,WSDL version 420,2013-05-24 01:30:00,
2013-05-23 21:36:00,59.4,56.0,28.97,NNE,19,0.0,1.6,89,-99.99,,,-99.99,WSDL version 420,2013-05-24 01:36:00,
2013-05-23 21:42:00,59.2,56.0,28.94,North,3,0.0,1.3,89,-99.99,,,-99.99,WSDL version 420,2013-05-24 01:42:00,
2013-05-23 21:48:00,59.0,55.8,28.94,NE,53,0.0,1.1,90,-99.99,,,-99.99,WSDL version 420,2013-05-24 01:48:00,
2013-05-23 21:54:00,58.9,56.0,28.94,NNW,338,0.0,0.0,90,-99.99,,,-99.99,WSDL version 420,2013-05-24 01:54:00,
2013-05-23 22:00:00,58.8,56.0,28.97,NNW,343,0.0,0.0,91,-99.99,,,-99.99,WSDL version 420,2013-05-24 02:00:00,
2013-05-23 22:06:00,58.6,55.9,28.97,North,349,0.3,3.6,91,-99.99,,,-99.99,WSDL version 420,2013-05-24 02:06:00,
2013-05-23 22:12:00,58.5,56.0,28.97,North,356,1.3,4.3,92,-99.99,,,-99.99,WSDL version 420,2013-05-24 02:12:00,
2013-05-23 22:18:00,58.3,56.1,28.97,NNW,343,0.7,4.3,92,-99.99,,,-99.99,WSDL version 420,2013-05-24 02:18:00,
2013-05-23 22:24:00,58.1,55.9,28.97,North,357,0.0,4.9,92,-99.99,,,-99.99,WSDL version 420,2013-05-24 02:24:00,
2013-05-23 22:30:00,57.9,55.6,28.97,North,357,0.2,4.9,92,-99.99,,,-99.99,WSDL version 420,2013-05-24 02:30:00,
2013-05-23 22:36:00,57.5,55.3,28.97,NNW,338,0.4,4.0,92,-99.99,,,-99.99,WSDL version 420,2013-05-24 02:36:00,
2013-05-23 22:42:00,57.2,55.0,28.97,NNW,338,1.3,4.0,92,-99.99,,,-99.99,WSDL version 420,2013-05-24 02:42:00,
2013-05-23 22:48:00,56.9,54.7,28.97,NNW,332,0.1,3.1,92,-99.99,,,-99.99,WSDL version 420,2013-05-24 02:48:00,
2013-05-23 22:53:00,56.5,54.3,28.97,NNW,332,1.3,3.4,92,-99.99,,,-99.99,WSDL version 420,2013-05-24 02:53:00,
2013-05-23 22:59:00,56.2,54.0,29.00,NNW,344,0.9,3.4,92,-99.99,,,-99.99,WSDL version 420,2013-05-24 02:59:00,
2013-05-23 23:05:00,55.9,53.7,29.00,North,356,0.0,3.1,92,-99.99,,,-99.99,WSDL version 420,2013-05-24 03:05:00,
2013-05-23 23:12:00,55.9,53.6,-100.00,North,8,0.0,1.1,92,-99.99,,,-99.99,WSDL version 420,2013-05-24 03:12:00,
2013-05-23 23:18:00,55.5,53.3,29.00,NNW,345,2.2,4.7,92,-99.99,,,-99.99,WSDL version 420,2013-05-24 03:18:00,
2013-05-23 23:24:00,54.8,52.3,29.00,NNE,23,0.0,4.7,91,-99.99,,,-99.99,WSDL version 420,2013-05-24 03:24:00,
2013-05-23 23:30:00,54.5,52.0,29.00,North,8,0.4,4.3,91,-99.99,,,-99.99,WSDL version 420,2013-05-24 03:30:00,
2013-05-23 23:36:00,54.1,51.5,29.00,NNW,343,0.0,4.3,91,-99.99,,,-99.99,WSDL version 420,2013-05-24 03:36:00,
2013-05-23 23:42:00,53.8,51.3,29.00,NNW,344,1.1,2.9,91,-99.99,,,-99.99,WSDL version 420,2013-05-24 03:42:00,
2013-05-23 23:50:00,53.2,50.9,29.00,NNE,16,1.9,3.6,92,-99.99,,,-99.99,WSDL version 420,2013-05-24 03:50:00,
2013-05-23 23:55:00,52.9,50.7,29.00,North,357,1.6,3.6,92,-99.99,,,-99.99,WSDL version 420,2013-05-24 03:55:00,